Total_Precipitation_Accumulation
0.12 0.13 0.26 0.28 0.19 0.22 0.41 0.36 0.35 0.19 0.17 0.20 0.19 0.22 0.25 0.26 0.24 0.20 0.19 0.17 0.15 0.17 0.18 0.20 0.23 0.26 0.27 0.30 0.36 0.43 0.45 0.43 0.44 0.46 0.46 0.45 0.45 0.44 0.42 0.43 0.43 0.46 0.52 0.56
0.11 0.08 0.15 0.20 0.13 0.12 0.15 0.15 0.17 0.14 0.16 0.14 0.17 0.22 0.24 0.24 0.21 0.19 0.18 0.16 0.13 0.12 0.13 0.14 0.19 0.28 0.33 0.38 0.41 0.42 0.44 0.42 0.41 0.42 0.44 0.43 0.40 0.36 0.35 0.37 0.39 0.41 0.44 0.49
0.19 0.05 0.17 0.23 0.15 0.12 0.12 0.13 0.17 0.21 0.18 0.15 0.21 0.28 0.31 0.25 0.18 0.16 0.16 0.14 0.12 0.11 0.12 0.15 0.23 0.38 0.52 0.58 0.55 0.52 0.50 0.46 0.42 0.41 0.42 0.43 0.43 0.43 0.42 0.41 0.43 0.45 0.46 0.49
0.35 0.18 0.34 0.25 0.12 0.09 0.10 0.15 0.18 0.17 0.15 0.15 0.18 0.23 0.24 0.18 0.13 0.13 0.13 0.13 0.12 0.12 0.14 0.19 0.28 0.40 0.51 0.60 0.65 0.63 0.62 0.60 0.54 0.54 0.56 0.58 0.60 0.61 0.60 0.60 0.61 0.62 0.61 0.63
0.55 0.36 0.20 0.14 0.10 0.14 0.17 0.18 0.17 0.15 0.11 0.10 0.11 0.16 0.17 0.12 0.10 0.11 0.12 0.13 0.13 0.13 0.16 0.22 0.28 0.35 0.47 0.59 0.63 0.69 0.78 0.84 0.82 0.80 0.82 0.85 0.89 0.92 0.90 0.88 0.87 0.87 0.87 0.84
0.67 0.54 0.24 0.15 0.08 0.11 0.16 0.26 0.13 0.12 0.11 0.09 0.12 0.21 0.17 0.12 0.12 0.12 0.13 0.13 0.14 0.14 0.17 0.24 0.32 0.43 0.59 0.72 0.76 0.80 0.88 0.95 0.93 0.93 0.93 0.92 0.93 0.93 0.90 0.85 0.84 0.81 0.80 0.76
0.57 0.53 0.24 0.14 0.07 0.10 0.29 0.31 0.12 0.10 0.12 0.13 0.18 0.22 0.15 0.14 0.16 0.18 0.19 0.20 0.22 0.25 0.31 0.40 0.47 0.62 0.84 0.94 0.91 0.86 0.85 0.83 0.77 0.74 0.69 0.66 0.63 0.60 0.58 0.56 0.55 0.52 0.50 0.45
0.44 0.59 0.35 0.13 0.11 0.22 0.28 0.14 0.09 0.09 0.12 0.16 0.14 0.11 0.11 0.11 0.14 0.21 0.25 0.26 0.29 0.37 0.44 0.50 0.52 0.60 0.69 0.70 0.67 0.63 0.58 0.51 0.45 0.43 0.41 0.40 0.40 0.37 0.34 0.33 0.33 0.32 0.29 0.28
0.37 0.36 0.22 0.14 0.16 0.17 0.15 0.14 0.11 0.14 0.14 0.14 0.13 0.10 0.10 0.11 0.12 0.16 0.20 0.21 0.24 0.26 0.27 0.30 0.29 0.32 0.34 0.31 0.31 0.32 0.29 0.25 0.22 0.21 0.22 0.23 0.25 0.25 0.22 0.20 0.22 0.23 0.22 0.23
0.26 0.20 0.15 0.13 0.11 0.10 0.11 0.15 0.14 0.15 0.14 0.14 0.16 0.11 0.11 0.12 0.12 0.14 0.16 0.17 0.19 0.20 0.18 0.19 0.17 0.17 0.17 0.16 0.19 0.21 0.21 0.20 0.18 0.18 0.18 0.20 0.22 0.23 0.24 0.23 0.24 0.25 0.25 0.26
0.24 0.14 0.12 0.11 0.10 0.11 0.11 0.10 0.10 0.09 0.09 0.12 0.15 0.13 0.13 0.15 0.15 0.15 0.17 0.19 0.20 0.21 0.20 0.18 0.17 0.16 0.17 0.17 0.18 0.21 0.21 0.22 0.23 0.21 0.20 0.22 0.24 0.26 0.30 0.28 0.30 0.34 0.34 0.34
0.30 0.15 0.21 0.17 0.11 0.12 0.13 0.11 0.09 0.10 0.10 0.10 0.12 0.15 0.14 0.14 0.14 0.16 0.18 0.21 0.22 0.21 0.20 0.19 0.19 0.19 0.20 0.21 0.23 0.25 0.26 0.26 0.28 0.29 0.27 0.28 0.29 0.31 0.34 0.36 0.38 0.38 0.38 0.40
0.25 0.17 0.20 0.18 0.14 0.12 0.13 0.12 0.11 0.12 0.14 0.15 0.13 0.14 0.15 0.14 0.14 0.15 0.16 0.19 0.22 0.22 0.23 0.21 0.20 0.20 0.23 0.26 0.28 0.31 0.34 0.34 0.36 0.37 0.36 0.36 0.37 0.37 0.38 0.40 0.43 0.43 0.40 0.40
0.18 0.23 0.24 0.17 0.17 0.14 0.13 0.13 0.13 0.13 0.14 0.16 0.15 0.14 0.14 0.14 0.14 0.16 0.18 0.20 0.22 0.23 0.23 0.22 0.21 0.21 0.22 0.25 0.27 0.29 0.30 0.33 0.36 0.37 0.38 0.39 0.40 0.40 0.41 0.43 0.43 0.40 0.39 0.42
0.22 0.26 0.28 0.23 0.18 0.16 0.15 0.14 0.14 0.15 0.16 0.16 0.16 0.16 0.16 0.17 0.19 0.20 0.20 0.21 0.21 0.21 0.21 0.21 0.22 0.23 0.24 0.25 0.28 0.29 0.30 0.33 0.37 0.39 0.41 0.42 0.42 0.43 0.43 0.43 0.42 0.41 0.40 0.45
0.31 0.27 0.24 0.24 0.23 0.22 0.21 0.21 0.22 0.20 0.20 0.19 0.19 0.19 0.20 0.21 0.23 0.23 0.22 0.23 0.24 0.24 0.23 0.23 0.23 0.25 0.27 0.28 0.30 0.32 0.33 0.40 0.46 0.46 0.46 0.46 0.47 0.49 0.48 0.47 0.46 0.46 0.46 0.50
0.50 0.46 0.41 0.36 0.31 0.30 0.31 0.32 0.32 0.29 0.26 0.26 0.27 0.26 0.24 0.23 0.23 0.24 0.25 0.25 0.26 0.27 0.27 0.27 0.28 0.28 0.29 0.30 0.33 0.36 0.37 0.42 0.51 0.51 0.48 0.49 0.52 0.54 0.54 0.55 0.53 0.50 0.48 0.55
0.52 0.52 0.51 0.52 0.47 0.43 0.41 0.40 0.39 0.38 0.38 0.37 0.34 0.32 0.31 0.30 0.31 0.30 0.30 0.27 0.25 0.24 0.25 0.27 0.28 0.28 0.29 0.32 0.37 0.40 0.42 0.43 0.47 0.50 0.51 0.54 0.59 0.60 0.61 0.59 0.54 0.52 0.50 0.55
0.44 0.45 0.44 0.46 0.47 0.47 0.46 0.45 0.45 0.46 0.44 0.42 0.41 0.41 0.39 0.37 0.37 0.36 0.34 0.33 0.31 0.30 0.31 0.30 0.32 0.29 0.31 0.36 0.42 0.44 0.46 0.48 0.48 0.49 0.51 0.57 0.59 0.56 0.56 0.56 0.54 0.52 0.52 0.54
0.41 0.41 0.39 0.39 0.39 0.41 0.44 0.45 0.44 0.43 0.43 0.41 0.40 0.38 0.37 0.38 0.37 0.37 0.36 0.38 0.40 0.42 0.39 0.37 0.34 0.32 0.34 0.38 0.45 0.45 0.46 0.48 0.49 0.50 0.51 0.53 0.53 0.51 0.51 0.53 0.55 0.55 0.54 0.53
0.44 0.43 0.43 0.45 0.46 0.46 0.48 0.48 0.46 0.45 0.43 0.41 0.42 0.42 0.40 0.37 0.37 0.38 0.37 0.38 0.39 0.39 0.37 0.36 0.35 0.36 0.40 0.47 0.50 0.46 0.46 0.48 0.50 0.52 0.53 0.54 0.54 0.53 0.52 0.52 0.53 0.55 0.55 0.54
0.41 0.43 0.44 0.44 0.46 0.49 0.50 0.47 0.44 0.44 0.45 0.45 0.44 0.42 0.39 0.38 0.38 0.36 0.37 0.43 0.44 0.43 0.40 0.37 0.38 0.45 0.51 0.55 0.49 0.45 0.46 0.50 0.52 0.53 0.55 0.54 0.55 0.55 0.53 0.53 0.55 0.55 0.56 0.57
0.30 0.33 0.34 0.36 0.39 0.43 0.41 0.41 0.42 0.44 0.48 0.52 0.53 0.50 0.49 0.48 0.47 0.45 0.46 0.45 0.44 0.43 0.41 0.42 0.45 0.50 0.53 0.49 0.45 0.45 0.47 0.50 0.52 0.53 0.53 0.53 0.54 0.55 0.57 0.57 0.56 0.57 0.58 0.57
0.25 0.26 0.29 0.31 0.31 0.30 0.33 0.37 0.39 0.42 0.44 0.46 0.49 0.51 0.51 0.49 0.47 0.47 0.51 0.52 0.49 0.45 0.44 0.47 0.49 0.49 0.48 0.44 0.44 0.45 0.46 0.48 0.49 0.50 0.52 0.52 0.53 0.54 0.56 0.56 0.55 0.54 0.54 0.54
0.26 0.26 0.26 0.27 0.27 0.29 0.32 0.33 0.33 0.34 0.34 0.36 0.38 0.40 0.43 0.47 0.52 0.51 0.47 0.46 0.47 0.44 0.42 0.44 0.45 0.46 0.44 0.42 0.43 0.44 0.46 0.49 0.54 0.58 0.57 0.54 0.52 0.52 0.52 0.52 0.53 0.53 0.51 0.50
0.27 0.28 0.29 0.30 0.31 0.32 0.32 0.30 0.29 0.30 0.31 0.32 0.33 0.34 0.36 0.39 0.41 0.41 0.40 0.40 0.40 0.40 0.39 0.40 0.41 0.42 0.42 0.44 0.46 0.46 0.48 0.49 0.51 0.53 0.52 0.52 0.50 0.50 0.50 0.49 0.49 0.50 0.50 0.50
0.26 0.27 0.26 0.25 0.26 0.27 0.28 0.27 0.27 0.28 0.29 0.31 0.32 0.30 0.31 0.33 0.33 0.35 0.36 0.36 0.36 0.36 0.36 0.37 0.39 0.41 0.42 0.44 0.44 0.44 0.45 0.46 0.47 0.49 0.50 0.50 0.50 0.50 0.49 0.49 0.49 0.48 0.49 0.48